Weather History for Monarch Pass, CO

Change the Weather History Date:

Sunday, July 7, 2013

  Actual Average (KGUC) Record (KGUC)
Temperature  
Mean Temperature 55 °F -  
Max Temperature 66 °F 77 °F 84 °F (2001)
Min Temperature 44 °F 43 °F 39 °F (2003)
Degree Days  
Heating Degree Days 10    
Growing Degree Days 5 (Base 50)    
Moisture  
Dew Point 40 °F    
Average Humidity 65    
Maximum Humidity 93    
Minimum Humidity 32    
Precipitation  
Precipitation 0.00 in - - ()
Sea Level Pressure  
Sea Level Pressure 30.71 in    
Wind  
Wind Speed 11 mph (WSW)    
Max Wind Speed 21 mph    
Max Gust Speed 26 mph    
Averages and records for this station are not official NWS values.
T = Trace of Precipitation, MM = Missing Value Source: NWS Daily Summary

Daily Weather History Graph

Daily Weather History Graph

Search for Another Location

Airport:

Trip Planner

Search our weather history database for the weather conditions in past years. The results will help you decide how hot, cold, wet, or windy it might be!

Date:

Astronomy

Jul. 07, 2013 Rise Set
Actual Time 5:48 AM MDT 8:31 PM MDT
Civil Twilight 5:16 AM MDT 9:03 PM MDT
Nautical Twilight 4:37 AM MDT 9:42 PM MDT
Astronomical Twilight 3:53 AM MDT 10:26 PM MDT
Moon 5:25 AM MDT (7/7) 7:58 PM MDT (7/7)
Length of Visible Light 15h 46m
Length of Day
14h 43m
Waning Crescent, 0% of the Moon is Illuminated
Jul 7
Waning Crescent
Jul 8
New
Jul 15
First Quarter
Jul 22
Full
Jul 29
Last Quarter

Hourly Weather History & Observations

Time (MDT) Temp. Windchill Dew Point Humidity Pressure Visibility Wind Dir Wind Speed Gust Speed Precip Events Conditions
12:14 AM 48.2 °F - 41.0 °F 76% 30.69 in - South 4.6 mph - N/A   Overcast
12:34 AM 46.4 °F 45.2 °F 41.0 °F 81% 30.70 in - WSW 3.5 mph 26.5 mph N/A   Overcast
12:54 AM 48.2 °F - 39.2 °F 71% 30.69 in - SW 6.9 mph - N/A   Overcast
1:14 AM 46.4 °F 41.1 °F 41.0 °F 81% 30.68 in - SSW 11.5 mph - N/A   Overcast
1:34 AM 46.4 °F 40.1 °F 41.0 °F 81% 30.68 in - SSW 15.0 mph - N/A   Overcast
1:54 AM 46.4 °F 39.8 °F 42.8 °F 87% 30.68 in - SW 16.1 mph - N/A   Unknown
2:14 AM 46.4 °F 39.8 °F 42.8 °F 87% 30.69 in - SW 16.1 mph - N/A   Unknown
2:34 AM 46.4 °F 39.2 °F 42.8 °F 87% 30.68 in - SW 18.4 mph - N/A   Overcast
2:54 AM 46.4 °F 38.7 °F 41.0 °F 81% 30.67 in - WSW 20.7 mph - N/A   Overcast
3:14 AM 46.4 °F 39.8 °F 41.0 °F 81% 30.67 in - WSW 16.1 mph - N/A   Overcast
3:34 AM 46.4 °F 39.2 °F 41.0 °F 81% 30.67 in - WSW 18.4 mph - N/A   Mostly Cloudy
3:54 AM 44.6 °F 37.4 °F 41.0 °F 87% 30.67 in - SW 16.1 mph - N/A   Unknown
4:14 AM 44.6 °F 37.8 °F 42.8 °F 93% 30.67 in - SW 15.0 mph - N/A   Unknown
4:34 AM 44.6 °F 38.1 °F 42.8 °F 93% 30.67 in - SW 13.8 mph - N/A   Mostly Cloudy
4:54 AM 44.6 °F 38.1 °F 41.0 °F 87% 30.67 in - West 13.8 mph - N/A   Overcast
5:14 AM 46.4 °F 40.4 °F 41.0 °F 81% 30.68 in - West 13.8 mph - N/A   Mostly Cloudy
5:34 AM 44.6 °F 37.8 °F 41.0 °F 87% 30.68 in - West 15.0 mph - N/A   Scattered Clouds
5:54 AM 46.4 °F 41.1 °F 41.0 °F 81% 30.68 in - WSW 11.5 mph - N/A   Mostly Cloudy
6:14 AM 46.4 °F 41.9 °F 41.0 °F 81% 30.69 in - West 9.2 mph - N/A   Overcast
6:34 AM 46.4 °F 41.9 °F 41.0 °F 81% 30.69 in - West 9.2 mph - N/A   Overcast
6:54 AM 46.4 °F 41.1 °F 41.0 °F 81% 30.69 in - West 11.5 mph - N/A   Mostly Cloudy
7:14 AM 46.4 °F 41.5 °F 39.2 °F 76% 30.69 in - West 10.4 mph - N/A   Mostly Cloudy
7:34 AM 46.4 °F 41.5 °F 37.4 °F 71% 30.70 in - West 10.4 mph - N/A   Overcast
7:54 AM 48.2 °F - 39.2 °F 71% 30.70 in - West 10.4 mph - N/A   Overcast
8:14 AM 48.2 °F - 37.4 °F 66% 30.71 in - West 13.8 mph - N/A   Overcast
8:34 AM 48.2 °F - 39.2 °F 71% 30.71 in - WSW 12.7 mph - N/A   Overcast
8:54 AM 51.8 °F - 39.2 °F 62% 30.72 in - West 11.5 mph - N/A   Mostly Cloudy
9:14 AM 51.8 °F - 41.0 °F 67% 30.72 in - West 9.2 mph - N/A   Scattered Clouds
9:34 AM 51.8 °F - 41.0 °F 67% 30.73 in - WNW 10.4 mph - N/A   Clear
9:54 AM 53.6 °F - 41.0 °F 62% 30.73 in - WNW 5.8 mph 9.2 mph N/A   Clear
10:14 AM 53.6 °F - 42.8 °F 67% 30.73 in - West 10.4 mph - N/A   Clear
10:34 AM 53.6 °F - 42.8 °F 67% 30.73 in - West 8.1 mph - N/A   Clear
10:54 AM 55.4 °F - 42.8 °F 63% 30.73 in - West 10.4 mph - N/A   Clear
11:14 AM 57.2 °F - 42.8 °F 59% 30.74 in - WSW 8.1 mph - N/A   Scattered Clouds
11:34 AM 59.0 °F - 42.8 °F 55% 30.74 in - WSW 10.4 mph - N/A   Clear
11:54 AM 62.6 °F - 42.8 °F 48% 30.74 in - WNW 3.5 mph 16.1 mph N/A   Scattered Clouds
12:14 PM 60.8 °F - 39.2 °F 45% 30.74 in - WSW 13.8 mph - N/A   Clear
12:34 PM 60.8 °F - 37.4 °F 42% 30.74 in - West 12.7 mph 24.2 mph N/A   Clear
12:54 PM 60.8 °F - 39.2 °F 45% 30.73 in - West 13.8 mph 17.3 mph N/A   Mostly Cloudy
1:14 PM 62.6 °F - 39.2 °F 42% 30.73 in - SW 12.7 mph - N/A Thunderstorm Thunderstorm
1:34 PM 64.4 °F - 39.2 °F 40% 30.72 in - SW 15.0 mph 21.9 mph N/A   Scattered Clouds
1:54 PM 64.4 °F - 37.4 °F 37% 30.72 in - SW 15.0 mph 23.0 mph N/A   Clear
2:14 PM 66.2 °F - 35.6 °F 32% 30.72 in - SSW 10.4 mph 18.4 mph N/A   Scattered Clouds
2:34 PM 66.2 °F - 35.6 °F 32% 30.72 in - WSW 8.1 mph 17.3 mph N/A   Scattered Clouds
2:54 PM 64.4 °F - 33.8 °F 32% 30.71 in - West 11.5 mph 18.4 mph N/A   Scattered Clouds
3:14 PM 64.4 °F - 33.8 °F 32% 30.71 in - South 6.9 mph - N/A   Scattered Clouds
3:34 PM 64.4 °F - 35.6 °F 34% 30.71 in - South 8.1 mph 17.3 mph N/A   Scattered Clouds
3:54 PM 66.2 °F - 35.6 °F 32% 30.70 in - SE 5.8 mph 17.3 mph N/A   Mostly Cloudy
4:14 PM 62.6 °F - 39.2 °F 42% 30.71 in - East 4.6 mph - N/A   Overcast
4:34 PM 60.8 °F - 41.0 °F 48% 30.70 in - ENE 12.7 mph 21.9 mph N/A   Mostly Cloudy
4:54 PM 59.0 °F - 39.2 °F 48% 30.70 in - NE 15.0 mph - N/A Thunderstorm Thunderstorm
5:14 PM 59.0 °F - 41.0 °F 51% 30.71 in - South 4.6 mph - N/A Thunderstorm Thunderstorm
5:34 PM 55.4 °F - 41.0 °F 58% 30.69 in - Calm Calm - N/A   Mostly Cloudy
5:54 PM 60.8 °F - 41.0 °F 48% 30.69 in - SE 4.6 mph - N/A   Scattered Clouds
6:14 PM 60.8 °F - 41.0 °F 48% 30.68 in - Calm Calm - N/A   Clear
6:34 PM 60.8 °F - 37.4 °F 42% 30.69 in - Calm Calm - N/A   Clear
6:54 PM 59.0 °F - 41.0 °F 51% 30.69 in - East 3.5 mph - N/A   Clear
7:14 PM 55.4 °F - 41.0 °F 58% 30.69 in - ENE 6.9 mph - N/A   Clear
7:35 PM 55.4 °F - 41.0 °F 58% 30.70 in - ENE 8.1 mph - N/A Thunderstorm Thunderstorm
7:54 PM 53.6 °F - 41.0 °F 62% 30.69 in - ENE 17.3 mph - N/A   Clear
8:14 PM 53.6 °F - 41.0 °F 62% 30.69 in - ENE 19.6 mph - N/A   Clear
8:35 PM 51.8 °F - 41.0 °F 67% 30.70 in - ENE 17.3 mph - N/A Thunderstorm Thunderstorm
8:54 PM 51.8 °F - 41.0 °F 67% 30.71 in - ENE 20.7 mph - N/A   Scattered Clouds
9:14 PM 50.0 °F - 42.8 °F 76% 30.72 in - ENE 16.1 mph - N/A Thunderstorm Thunderstorm
9:34 PM 50.0 °F - 42.8 °F 76% 30.72 in - ENE 20.7 mph - N/A   Mostly Cloudy
9:54 PM 48.2 °F - 42.8 °F 82% 30.73 in - ENE 15.0 mph - N/A   Mostly Cloudy
10:14 PM 48.2 °F - 42.8 °F 82% 30.74 in - ENE 12.7 mph - N/A   Mostly Cloudy
10:35 PM 48.2 °F - 41.0 °F 76% 30.74 in - East 12.7 mph - N/A   Clear
10:54 PM 48.2 °F - 41.0 °F 76% 30.74 in - ENE 15.0 mph - N/A   Clear
11:15 PM 48.2 °F - 41.0 °F 76% 30.73 in - East 20.7 mph - N/A   Scattered Clouds
11:35 PM 48.2 °F - 42.8 °F 82% 30.74 in - East 17.3 mph - N/A Thunderstorm Thunderstorm
11:55 PM 48.2 °F - 42.8 °F 82% 30.77 in - SSW 12.7 mph 16.1 mph N/A Thunderstorm Thunderstorm